Regional Weather Roundup
Issued by NWS

Home | Current Version | Previous Version | Text Only | Print | Product List | Glossary On
Versions: 1 2 3 4 5 6 7 8 9 10 11 12 13 14 15 16 17 18 19 20 21 22 23 24 25 26 27
000
ASCA42 TJSJ 110210
RWRPR
PUERTO RICO/U.S. VIRGIN ISLANDS HOURLY WEATHER ROUNDUP
NATIONAL WEATHER SERVICE SAN JUAN PR
1000 PM AST SUN DEC 10 2017

PRZ001>002-007>008-010-110300-
PUERTO RICO

CITY           SKY/WX    TMP DP  RH WIND       PRES   REMARKS
SAN JUAN LMM   PTCLDY    79  73  83 NE13      30.01R
PONCE          CLEAR     73  72  94 CALM      30.02
$$

VIZ001>002-110300-
U.S. VIRGIN ISLANDS

CITY           SKY/WX    TMP DP  RH WIND       PRES   REMARKS
CHARLOTTE AMA    N/A    N/A N/A N/A MISG      29.99R
CHRISTIANSTED  CLOUDY    75  73  94 N6        30.00R
$$

HOURLY WEATHER ROUNDUP FOR THE NEWS MEDIA

CITY           SKY/WX    TMP DP  RH WIND       PRES   REMARKS
ORLANDO        CLEAR     47  35  63 W8        30.30R
NEW YORK       MOCLDY    36  25  64 W21       30.03R WCI  25
NEWARK         CLOUDY    35  23  61 SW10      30.02S WCI  27
CHICAGO        CLOUDY    30  19  63 NW8       30.06R WCI  22
HARTFORD       CLEAR     30  25  81 SW3       29.97R
BOSTON         CLOUDY    32  25  75 SW10      29.95R WCI  24
DALLAS         PTCLDY    60  23  24 SW5       30.29S
PHILADELPHIA   CLOUDY    36  24  62 S9        30.05S WCI  29
LOS ANGELES    CLOUDY    75  14  10 NE3       30.10R
WASHINGTON DC  CLOUDY    34  26  72 S7        30.05S WCI  28



USA.gov is the U.S. government's official web portal to all federal, state and local government web resources and services.